Location: Southlake
(32.9412°N, 97.1342°W)
Time: 08:33:50
(UTC+00:00)

Cosmos 1408 Rocket - Pass Details

Date: 03 December 2021
Orbit: 601 x 630 km, 82.6° (Epoch: 26 January)

Event Time Altitude Azimuth Distance (km) Brightness Sun altitude
Rises 11:59:56 0° 178° (S) 2,844 7.2 -15.5°
Reaches altitude 10° 12:02:09 10° 176° (S) 1,942 6.4 -15.1°
Maximum altitude 12:06:24 65° 94° (E) 663 3.9 -14.2°
Drops below altitude 10° 12:10:40 10° 13° (NNE) 1,949 6.1 -13.4°
Sets 12:12:53 0° 10° (N) 2,855 6.9 -12.9°
